Time,TemperatureF,DewpointF,PressureIn,WindDirection,WindDirectionDegrees,WindSpeedMPH,WindSpeedGustMPH,Humidity,HourlyPrecipIn,Conditions,Clouds,dailyrainin,SoftwareType,DateUTC
2013-07-13 00:00:00,68.9,55.4,30.09,ESE,112,0.0,0.0,62,0.00,,CLR,0.00,VWS V14.01,2013-07-13 05:00:00,
2013-07-13 00:10:00,69.1,54.7,30.09,ESE,112,0.0,3.0,60,0.00,,CLR,0.00,VWS V14.01,2013-07-13 05:10:00,
2013-07-13 00:20:00,69.0,55.0,30.09,ESE,112,0.0,0.0,61,0.00,,CLR,0.00,VWS V14.01,2013-07-13 05:20:00,
2013-07-13 00:30:00,68.8,55.3,30.08,ESE,112,0.0,0.0,62,0.00,,CLR,0.00,VWS V14.01,2013-07-13 05:30:00,
2013-07-13 00:40:00,68.3,55.2,30.08,ESE,112,0.0,0.0,63,0.00,,CLR,0.00,VWS V14.01,2013-07-13 05:40:00,
2013-07-13 00:50:00,68.2,55.6,30.08,ESE,112,0.0,2.0,64,0.00,,CLR,0.00,VWS V14.01,2013-07-13 05:50:00,
2013-07-13 01:00:00,68.2,55.6,30.08,ESE,112,1.0,3.0,64,0.00,,CLR,0.00,VWS V14.01,2013-07-13 06:00:00,
2013-07-13 01:10:00,67.9,56.1,30.08,ESE,112,1.0,3.0,66,0.00,,CLR,0.00,VWS V14.01,2013-07-13 06:10:00,
2013-07-13 01:20:00,67.7,56.4,30.08,ESE,112,1.0,3.0,67,0.00,,CLR,0.00,VWS V14.01,2013-07-13 06:20:00,
2013-07-13 01:30:00,67.1,56.6,30.08,ESE,112,0.0,3.0,69,0.00,,CLR,0.00,VWS V14.01,2013-07-13 06:30:00,
2013-07-13 01:40:00,66.6,56.5,30.09,East,90,0.0,1.0,70,0.00,,CLR,0.00,VWS V14.01,2013-07-13 06:40:00,
2013-07-13 01:50:00,66.1,56.8,30.09,East,90,0.0,0.0,72,0.00,,CLR,0.00,VWS V14.01,2013-07-13 06:50:00,
2013-07-13 02:00:00,65.6,57.1,30.10,East,90,0.0,0.0,74,0.00,,CLR,0.00,VWS V14.01,2013-07-13 07:00:00,
2013-07-13 02:10:00,65.2,57.1,30.10,East,90,0.0,0.0,75,0.00,,CLR,0.00,VWS V14.01,2013-07-13 07:10:00,
2013-07-13 02:20:00,65.2,57.8,30.10,East,90,0.0,0.0,77,0.00,,CLR,0.00,VWS V14.01,2013-07-13 07:20:00,
2013-07-13 02:30:00,64.8,58.1,30.10,East,90,0.0,2.0,79,0.00,,CLR,0.00,VWS V14.01,2013-07-13 07:30:00,
2013-07-13 02:40:00,64.9,58.6,30.11,East,90,0.0,2.0,80,0.00,,CLR,0.00,VWS V14.01,2013-07-13 07:40:00,
2013-07-13 02:50:00,65.3,58.6,30.11,ENE,68,0.0,1.0,79,0.00,,CLR,0.00,VWS V14.01,2013-07-13 07:50:00,
2013-07-13 03:00:00,65.8,59.1,30.11,ESE,112,1.0,4.0,79,0.00,,CLR,0.00,VWS V14.01,2013-07-13 08:00:00,
2013-07-13 03:10:00,66.2,59.2,30.11,East,90,0.0,3.0,78,0.00,,CLR,0.00,VWS V14.01,2013-07-13 08:10:00,
2013-07-13 03:20:00,66.3,59.6,30.12,East,90,0.0,1.0,79,0.00,,CLR,0.00,VWS V14.01,2013-07-13 08:20:00,
2013-07-13 03:30:00,66.2,59.5,30.12,SE,135,0.0,1.0,79,0.00,,CLR,0.00,VWS V14.01,2013-07-13 08:30:00,
2013-07-13 03:40:00,65.8,59.5,30.11,WSW,248,0.0,1.0,80,0.00,,CLR,0.00,VWS V14.01,2013-07-13 08:40:00,
2013-07-13 03:50:00,65.0,59.0,30.11,WSW,248,0.0,1.0,81,0.00,,CLR,0.00,VWS V14.01,2013-07-13 08:50:00,
2013-07-13 04:00:00,64.4,59.1,30.11,WSW,248,0.0,0.0,83,0.00,,CLR,0.00,VWS V14.01,2013-07-13 09:00:00,
2013-07-13 04:10:00,64.0,59.1,30.11,WSW,248,0.0,0.0,84,0.00,,CLR,0.00,VWS V14.01,2013-07-13 09:10:00,
2013-07-13 04:20:00,63.9,59.3,30.10,East,90,0.0,2.0,85,0.00,,CLR,0.00,VWS V14.01,2013-07-13 09:20:00,
2013-07-13 04:30:00,64.0,59.4,30.10,ESE,112,0.0,2.0,85,0.00,,CLR,0.00,VWS V14.01,2013-07-13 09:30:00,
2013-07-13 04:40:00,64.1,59.5,30.10,ESE,112,0.0,1.0,85,0.00,,CLR,0.00,VWS V14.01,2013-07-13 09:40:00,
2013-07-13 04:50:00,64.1,59.5,30.10,East,90,0.0,2.0,85,0.00,,CLR,0.00,VWS V14.01,2013-07-13 09:50:00,
2013-07-13 05:00:00,64.0,59.4,30.11,SE,135,0.0,2.0,85,0.00,,CLR,0.00,VWS V14.01,2013-07-13 10:00:00,
2013-07-13 05:10:00,63.6,59.3,30.11,SSE,158,0.0,1.0,86,0.00,,CLR,0.00,VWS V14.01,2013-07-13 10:10:00,
2013-07-13 05:20:00,63.6,59.3,30.11,ESE,112,0.0,3.0,86,0.00,,CLR,0.00,VWS V14.01,2013-07-13 10:20:00,
2013-07-13 05:30:00,63.5,59.6,30.11,East,90,0.0,2.0,87,0.00,,CLR,0.00,VWS V14.01,2013-07-13 10:30:00,
2013-07-13 05:40:00,63.7,59.4,30.11,ESE,112,0.0,3.0,86,0.00,,CLR,0.00,VWS V14.01,2013-07-13 10:40:00,
2013-07-13 05:50:00,63.8,59.5,30.10,ESE,112,0.0,0.0,86,0.00,,CLR,0.00,VWS V14.01,2013-07-13 10:50:00,
2013-07-13 06:00:00,63.6,59.3,30.10,ESE,112,0.0,0.0,86,0.00,,CLR,0.00,VWS V14.01,2013-07-13 11:00:00,
2013-07-13 06:10:00,63.3,59.4,30.11,ESE,112,0.0,0.0,87,0.00,,CLR,0.00,VWS V14.01,2013-07-13 11:10:00,
2013-07-13 06:20:00,63.4,59.5,30.11,ESE,112,0.0,0.0,87,0.00,,CLR,0.00,VWS V14.01,2013-07-13 11:20:00,
2013-07-13 06:30:00,64.5,60.2,30.12,East,90,0.0,2.0,86,0.00,,CLR,0.00,VWS V14.01,2013-07-13 11:30:00,
2013-07-13 06:40:00,66.4,61.1,30.12,East,90,0.0,0.0,83,0.00,,CLR,0.00,VWS V14.01,2013-07-13 11:40:00,
2013-07-13 06:50:00,68.6,61.5,30.12,East,90,0.0,1.0,78,0.00,,CLR,0.00,VWS V14.01,2013-07-13 11:50:00,
2013-07-13 07:00:00,69.0,61.5,30.12,East,90,0.0,1.0,77,0.00,,CLR,0.00,VWS V14.01,2013-07-13 12:00:00,
2013-07-13 07:10:00,70.0,61.7,30.12,East,90,0.0,0.0,75,0.00,,CLR,0.00,VWS V14.01,2013-07-13 12:10:00,
2013-07-13 07:20:00,71.2,62.5,30.12,East,90,0.0,0.0,74,0.00,,CLR,0.00,VWS V14.01,2013-07-13 12:20:00,
2013-07-13 07:30:00,71.3,61.8,30.14,ESE,112,1.0,3.0,72,0.00,,CLR,0.00,VWS V14.01,2013-07-13 12:30:00,
2013-07-13 07:40:00,71.1,62.0,30.14,ESE,112,1.0,2.0,73,0.00,,CLR,0.00,VWS V14.01,2013-07-13 12:40:00,
2013-07-13 07:50:00,71.4,62.7,30.13,ESE,112,1.0,3.0,74,0.00,,CLR,0.00,VWS V14.01,2013-07-13 12:50:00,
2013-07-13 08:00:00,71.8,63.5,30.13,SE,135,1.0,4.0,75,0.00,,CLR,0.00,VWS V14.01,2013-07-13 13:00:00,
2013-07-13 08:10:00,72.1,63.4,30.13,ESE,112,2.0,4.0,74,0.00,,CLR,0.00,VWS V14.01,2013-07-13 13:10:00,
2013-07-13 08:20:00,72.5,63.0,30.13,SSE,158,2.0,5.0,72,0.00,,CLR,0.00,VWS V14.01,2013-07-13 13:20:00,
2013-07-13 08:30:00,73.0,63.0,30.13,SE,135,2.0,5.0,71,0.00,,CLR,0.00,VWS V14.01,2013-07-13 13:30:00,
2013-07-13 08:40:00,73.6,63.6,30.13,SE,135,2.0,4.0,71,0.00,,CLR,0.00,VWS V14.01,2013-07-13 13:40:00,
2013-07-13 08:50:00,73.9,63.1,30.14,ESE,112,2.0,5.0,69,0.00,,CLR,0.00,VWS V14.01,2013-07-13 13:50:00,
2013-07-13 09:00:00,74.8,63.5,30.14,SE,135,2.0,4.0,68,0.00,,CLR,0.00,VWS V14.01,2013-07-13 14:00:00,
2013-07-13 09:10:00,75.9,63.7,30.15,SSE,158,1.0,3.0,66,0.00,,CLR,0.00,VWS V14.01,2013-07-13 14:10:00,
2013-07-13 09:20:00,76.0,64.3,30.15,SE,135,1.0,3.0,67,0.00,,CLR,0.00,VWS V14.01,2013-07-13 14:20:00,
2013-07-13 09:30:00,76.0,63.8,30.14,SE,135,2.0,4.0,66,0.00,,CLR,0.00,VWS V14.01,2013-07-13 14:30:00,
2013-07-13 09:40:00,76.4,64.2,30.14,ESE,112,2.0,4.0,66,0.00,,CLR,0.00,VWS V14.01,2013-07-13 14:40:00,
2013-07-13 09:50:00,77.4,63.8,30.14,SSE,158,2.0,4.0,63,0.00,,CLR,0.00,VWS V14.01,2013-07-13 14:50:00,
2013-07-13 10:00:00,78.4,63.4,30.14,SSE,158,1.0,4.0,60,0.00,,CLR,0.00,VWS V14.01,2013-07-13 15:00:00,
2013-07-13 10:10:00,77.7,62.7,30.14,SE,135,2.0,6.0,60,0.00,,CLR,0.00,VWS V14.01,2013-07-13 15:10:00,
2013-07-13 10:20:00,77.6,63.1,30.13,SE,135,2.0,6.0,61,0.00,,CLR,0.00,VWS V14.01,2013-07-13 15:20:00,
2013-07-13 10:30:00,78.2,63.7,30.13,SSE,158,2.0,7.0,61,0.00,,CLR,0.00,VWS V14.01,2013-07-13 15:30:00,
2013-07-13 10:40:00,78.6,62.1,30.13,SSE,158,2.0,7.0,57,0.00,,CLR,0.00,VWS V14.01,2013-07-13 15:40:00,
2013-07-13 10:50:00,78.7,63.2,30.13,SSE,158,2.0,6.0,59,0.00,,CLR,0.00,VWS V14.01,2013-07-13 15:50:00,
2013-07-13 11:00:00,79.2,63.2,30.13,East,90,2.0,5.0,58,0.00,,CLR,0.00,VWS V14.01,2013-07-13 16:00:00,
2013-07-13 11:10:00,78.7,61.2,30.13,ESE,112,2.0,6.0,55,0.00,,CLR,0.00,VWS V14.01,2013-07-13 16:10:00,
2013-07-13 11:20:00,79.1,62.1,30.13,ESE,112,3.0,7.0,56,0.00,,CLR,0.00,VWS V14.01,2013-07-13 16:20:00,
2013-07-13 11:30:00,79.3,63.3,30.12,East,90,2.0,7.0,58,0.00,,CLR,0.00,VWS V14.01,2013-07-13 16:30:00,
2013-07-13 11:40:00,79.7,62.6,30.12,East,90,2.0,5.0,56,0.00,,CLR,0.00,VWS V14.01,2013-07-13 16:40:00,
2013-07-13 11:50:00,79.7,63.1,30.12,SE,135,2.0,6.0,57,0.00,,CLR,0.00,VWS V14.01,2013-07-13 16:50:00,
2013-07-13 12:00:00,80.2,63.1,30.12,East,90,3.0,7.0,56,0.00,,CLR,0.00,VWS V14.01,2013-07-13 17:00:00,
2013-07-13 12:10:00,79.8,62.2,30.12,SE,135,3.0,8.0,55,0.00,,CLR,0.00,VWS V14.01,2013-07-13 17:10:00,
2013-07-13 12:20:00,80.2,62.6,30.12,NE,45,1.0,6.0,55,0.00,,CLR,0.00,VWS V14.01,2013-07-13 17:20:00,
2013-07-13 12:30:00,80.2,63.6,30.11,ESE,112,3.0,6.0,57,0.00,,CLR,0.00,VWS V14.01,2013-07-13 17:30:00,
2013-07-13 12:40:00,80.5,61.3,30.11,East,90,2.0,6.0,52,0.00,,CLR,0.00,VWS V14.01,2013-07-13 17:40:00,
2013-07-13 12:50:00,80.8,63.7,30.11,East,90,1.0,6.0,56,0.00,,CLR,0.00,VWS V14.01,2013-07-13 17:50:00,
2013-07-13 13:00:00,80.8,62.1,30.11,ESE,112,2.0,6.0,53,0.00,,CLR,0.00,VWS V14.01,2013-07-13 18:00:00,
2013-07-13 13:10:00,80.9,62.7,30.11,East,90,2.0,7.0,54,0.00,,CLR,0.00,VWS V14.01,2013-07-13 18:10:00,
2013-07-13 13:20:00,81.1,62.4,30.11,SE,135,3.0,6.0,53,0.00,,CLR,0.00,VWS V14.01,2013-07-13 18:20:00,
2013-07-13 13:30:00,81.0,62.3,30.11,East,90,3.0,7.0,53,0.00,,CLR,0.00,VWS V14.01,2013-07-13 18:30:00,
2013-07-13 13:40:00,81.2,62.5,30.11,SE,135,3.0,8.0,53,0.00,,CLR,0.00,VWS V14.01,2013-07-13 18:40:00,
2013-07-13 13:50:00,81.7,63.5,30.11,SSW,202,2.0,6.0,54,0.00,,CLR,0.00,VWS V14.01,2013-07-13 18:50:00,
2013-07-13 14:00:00,81.5,63.3,30.11,East,90,3.0,7.0,54,0.00,,CLR,0.00,VWS V14.01,2013-07-13 19:00:00,
2013-07-13 14:10:00,81.8,64.1,30.11,East,90,3.0,9.0,55,0.00,,CLR,0.00,VWS V14.01,2013-07-13 19:10:00,
2013-07-13 14:20:00,80.9,62.7,30.10,SE,135,3.0,7.0,54,0.00,,CLR,0.00,VWS V14.01,2013-07-13 19:20:00,
2013-07-13 14:30:00,81.0,61.7,30.10,East,90,2.0,7.0,52,0.00,,CLR,0.00,VWS V14.01,2013-07-13 19:30:00,
2013-07-13 14:40:00,81.7,61.8,30.10,East,90,2.0,6.0,51,0.00,,CLR,0.00,VWS V14.01,2013-07-13 19:40:00,
2013-07-13 14:50:00,81.5,62.7,30.10,East,90,3.0,6.0,53,0.00,,CLR,0.00,VWS V14.01,2013-07-13 19:50:00,
2013-07-13 15:00:00,82.1,62.8,30.10,East,90,2.0,6.0,52,0.00,,CLR,0.00,VWS V14.01,2013-07-13 20:00:00,
2013-07-13 15:10:00,82.1,63.3,30.10,East,90,2.0,6.0,53,0.00,,CLR,0.00,VWS V14.01,2013-07-13 20:10:00,
2013-07-13 15:20:00,82.4,60.8,30.09,SE,135,2.0,6.0,48,0.00,,CLR,0.00,VWS V14.01,2013-07-13 20:20:00,
2013-07-13 15:30:00,81.9,60.9,30.09,East,90,2.0,5.0,49,0.00,,CLR,0.00,VWS V14.01,2013-07-13 20:30:00,
2013-07-13 15:40:00,81.7,61.3,30.09,SE,135,2.0,6.0,50,0.00,,CLR,0.00,VWS V14.01,2013-07-13 20:40:00,
2013-07-13 15:50:00,81.4,62.1,30.09,East,90,2.0,5.0,52,0.00,,CLR,0.00,VWS V14.01,2013-07-13 20:50:00,
2013-07-13 16:00:00,81.4,61.0,30.09,East,90,2.0,7.0,50,0.00,,CLR,0.00,VWS V14.01,2013-07-13 21:00:00,
2013-07-13 16:10:00,81.6,61.2,30.09,SE,135,2.0,8.0,50,0.00,,CLR,0.00,VWS V14.01,2013-07-13 21:10:00,
2013-07-13 16:20:00,81.7,62.4,30.09,SE,135,2.0,6.0,52,0.00,,CLR,0.00,VWS V14.01,2013-07-13 21:20:00,
2013-07-13 16:30:00,81.4,62.6,30.09,SSE,158,2.0,6.0,53,0.00,,CLR,0.00,VWS V14.01,2013-07-13 21:30:00,
2013-07-13 16:40:00,81.1,61.8,30.09,East,90,3.0,7.0,52,0.00,,CLR,0.00,VWS V14.01,2013-07-13 21:40:00,
2013-07-13 16:50:00,81.0,61.7,30.08,SSE,158,2.0,7.0,52,0.00,,CLR,0.00,VWS V14.01,2013-07-13 21:50:00,
2013-07-13 17:00:00,81.0,62.3,30.08,SE,135,3.0,7.0,53,0.00,,CLR,0.00,VWS V14.01,2013-07-13 22:00:00,
2013-07-13 17:10:00,81.2,64.0,30.08,East,90,3.0,8.0,56,0.00,,CLR,0.00,VWS V14.01,2013-07-13 22:10:00,
2013-07-13 17:20:00,80.7,63.6,30.08,ESE,112,3.0,8.0,56,0.00,,CLR,0.00,VWS V14.01,2013-07-13 22:20:00,
2013-07-13 17:30:00,80.8,62.6,30.08,SE,135,2.0,6.0,54,0.00,,CLR,0.00,VWS V14.01,2013-07-13 22:30:00,
2013-07-13 17:40:00,80.7,64.1,30.08,ESE,112,2.0,6.0,57,0.00,,CLR,0.00,VWS V14.01,2013-07-13 22:40:00,
2013-07-13 17:50:00,80.7,64.6,30.08,East,90,2.0,5.0,58,0.00,,CLR,0.00,VWS V14.01,2013-07-13 22:50:00,
2013-07-13 18:00:00,80.5,64.4,30.08,East,90,2.0,6.0,58,0.00,,CLR,0.00,VWS V14.01,2013-07-13 23:00:00,
2013-07-13 18:10:00,80.4,64.8,30.08,SE,135,3.0,8.0,59,0.00,,CLR,0.00,VWS V14.01,2013-07-13 23:10:00,
2013-07-13 18:20:00,80.0,64.9,30.08,East,90,2.0,5.0,60,0.00,,CLR,0.00,VWS V14.01,2013-07-13 23:20:00,
2013-07-13 18:30:00,79.9,64.8,30.08,ESE,112,2.0,6.0,60,0.00,,CLR,0.00,VWS V14.01,2013-07-13 23:30:00,
2013-07-13 18:40:00,79.7,65.1,30.07,East,90,2.0,7.0,61,0.00,,CLR,0.00,VWS V14.01,2013-07-13 23:40:00,
2013-07-13 18:50:00,79.5,64.9,30.07,ESE,112,2.0,6.0,61,0.00,,CLR,0.00,VWS V14.01,2013-07-13 23:50:00,
2013-07-13 19:00:00,79.2,65.1,30.07,East,90,2.0,4.0,62,0.00,,CLR,0.00,VWS V14.01,2013-07-14 00:00:00,
2013-07-13 19:10:00,79.1,65.4,30.07,SE,135,1.0,4.0,63,0.00,,CLR,0.00,VWS V14.01,2013-07-14 00:10:00,
2013-07-13 19:20:00,78.9,65.2,30.07,ESE,112,1.0,4.0,63,0.00,,CLR,0.00,VWS V14.01,2013-07-14 00:20:00,
2013-07-13 19:30:00,78.5,65.3,30.08,ESE,112,0.0,4.0,64,0.00,,CLR,0.00,VWS V14.01,2013-07-14 00:30:00,
2013-07-13 19:40:00,78.3,65.1,30.07,East,90,0.0,1.0,64,0.00,,CLR,0.00,VWS V14.01,2013-07-14 00:40:00,
2013-07-13 19:50:00,77.9,65.6,30.08,East,90,0.0,0.0,66,0.00,,CLR,0.00,VWS V14.01,2013-07-14 00:50:00,
2013-07-13 20:00:00,77.5,65.7,30.08,East,90,0.0,0.0,67,0.00,,CLR,0.00,VWS V14.01,2013-07-14 01:00:00,
2013-07-13 20:10:00,76.9,65.1,30.08,East,90,0.0,0.0,67,0.00,,CLR,0.00,VWS V14.01,2013-07-14 01:10:00,
2013-07-13 20:20:00,76.4,64.6,30.08,SE,135,1.0,3.0,67,0.00,,CLR,0.00,VWS V14.01,2013-07-14 01:20:00,
2013-07-13 20:30:00,75.8,64.5,30.08,ESE,112,0.0,2.0,68,0.00,,CLR,0.00,VWS V14.01,2013-07-14 01:30:00,
2013-07-13 20:40:00,75.2,64.8,30.08,East,90,1.0,3.0,70,0.00,,CLR,0.00,VWS V14.01,2013-07-14 01:40:00,
2013-07-13 20:50:00,74.6,64.6,30.09,ESE,112,0.0,2.0,71,0.00,,CLR,0.00,VWS V14.01,2013-07-14 01:50:00,
2013-07-13 21:00:00,74.4,64.4,30.09,ESE,112,0.0,2.0,71,0.00,,CLR,0.00,VWS V14.01,2013-07-14 02:00:00,
2013-07-13 21:10:00,74.3,64.3,30.09,ESE,112,0.0,3.0,71,0.00,,CLR,0.00,VWS V14.01,2013-07-14 02:10:00,
2013-07-13 21:20:00,74.4,64.4,30.10,East,90,1.0,3.0,71,0.00,,CLR,0.00,VWS V14.01,2013-07-14 02:20:00,
2013-07-13 21:30:00,74.3,64.7,30.10,East,90,1.0,4.0,72,0.00,,CLR,0.00,VWS V14.01,2013-07-14 02:30:00,
2013-07-13 21:40:00,74.2,64.6,30.10,East,90,0.0,2.0,72,0.00,,CLR,0.00,VWS V14.01,2013-07-14 02:40:00,
2013-07-13 21:50:00,73.9,64.7,30.11,East,90,0.0,2.0,73,0.00,,CLR,0.00,VWS V14.01,2013-07-14 02:50:00,
2013-07-13 22:00:00,73.5,64.7,30.11,East,90,0.0,3.0,74,0.00,,CLR,0.00,VWS V14.01,2013-07-14 03:00:00,
2013-07-13 22:10:00,73.1,64.7,30.11,ESE,112,0.0,4.0,75,0.00,,CLR,0.00,VWS V14.01,2013-07-14 03:10:00,
2013-07-13 22:20:00,72.9,64.9,30.11,East,90,1.0,4.0,76,0.00,,CLR,0.00,VWS V14.01,2013-07-14 03:20:00,
2013-07-13 22:30:00,72.9,64.9,30.11,East,90,1.0,3.0,76,0.00,,CLR,0.00,VWS V14.01,2013-07-14 03:30:00,
2013-07-13 22:40:00,72.9,65.3,30.11,East,90,1.0,4.0,77,0.00,,CLR,0.00,VWS V14.01,2013-07-14 03:40:00,
2013-07-13 22:50:00,72.6,65.0,30.11,East,90,2.0,4.0,77,0.00,,CLR,0.00,VWS V14.01,2013-07-14 03:50:00,
2013-07-13 23:00:00,72.6,65.3,30.11,East,90,2.0,5.0,78,0.00,,CLR,0.00,VWS V14.01,2013-07-14 04:00:00,
2013-07-13 23:10:00,72.4,65.2,30.11,East,90,2.0,6.0,78,0.00,,CLR,0.00,VWS V14.01,2013-07-14 04:10:00,
2013-07-13 23:20:00,72.2,65.3,30.11,East,90,1.0,5.0,79,0.00,,CLR,0.00,VWS V14.01,2013-07-14 04:20:00,
2013-07-13 23:30:00,72.2,65.3,30.11,East,90,2.0,5.0,79,0.00,,CLR,0.00,VWS V14.01,2013-07-14 04:30:00,
2013-07-13 23:40:00,72.0,65.1,30.11,East,90,1.0,5.0,79,0.00,,CLR,0.00,VWS V14.01,2013-07-14 04:40:00,
2013-07-13 23:50:00,71.7,65.2,30.11,East,90,1.0,3.0,80,0.00,,CLR,0.00,VWS V14.01,2013-07-14 04:50:00,